If you wish to contribute or participate in the discussions about articles you are invited to join SKYbrary as a registered user

 Actions

Agen-La Garenne Airport

From SKYbrary Wiki

LFBA
Airport
ICAO: LFBA – IATA: AGF
Summary
Name Agen-La Garenne Airport
Region Europe
Territory France FR.gif
Location Agen, Aquitaine
Serving Agen
Elevation 62.179 m
204 ft
204 ft62.179 m
Type medium airport
Coordinates 44° 10' 28.9956", 0° 35' 26.0016"
Runways
Designator Length Width Surface ROPS
11/29 2165 m7,103.018 ft 30 m98.425 ft ASP /


METAR
Observation LFBA 202230Z AUTO 00000KT CAVOK 21/18 Q1018
Station Agen
Date/Time 20 June 2018 22:30:00
Wind direction
Wind speed 00 kts
Lowest cloud amount clouds and visibility OK
Temperature 21°C
Dew point 18°C
Humidity 83%
QNH 1018 hPa
Weather condition n/a

Maps

Terrain

Loading map...

Airport Layout

Loading map...


Accidents & Serious Incidents at or in vicinity of LFBA

None on SKYbrary